Tiree, United Kingdom

7:06 PM BST on June 27, 2017 (GMT +0100)
Tiree

Weather History for EGPU - December, 2011

Change the Weather History Date:

Friday, December 30, 2011

  Actual Average Record
Temperature  
Mean Temperature 46 °F -  
Max Temperature 51 °F 45 °F 53 °F (2016)
Min Temperature 41 °F 37 °F 35 °F (1996)
Degree Days  
Heating Degree Days 19    
Moisture  
Dew Point 44 °F    
Average Humidity 94    
Maximum Humidity 100    
Minimum Humidity 76    
Precipitation  
Precipitation 0.67 in 0.17 in - ()
Sea Level Pressure  
Sea Level Pressure 29.73 in    
Wind  
Wind Speed 15 mph ()    
Max Wind Speed 30 mph    
Max Gust Speed -    
Visibility 4.7 miles    
Events Rain    
Averages and records for this station are not official NWS values.
T = Trace of Precipitation, MM = Missing Value Source: Averaged Metar Reports

Daily Weather History Graph

Daily Weather History Graph

Search for Another Location

Airport or City:

Trip Planner

Search our weather history database for the weather conditions in past years. The results will help you decide how hot, cold, wet, or windy it might be!

Date:

Astronomy

Dec. 30, 2011 Rise Set
Actual Time 9:02 AM GMT 3:57 PM GMT
Civil Twilight 8:14 AM GMT 4:45 PM GMT
Nautical Twilight 7:24 AM GMT 5:35 PM GMT
Astronomical Twilight 6:38 AM GMT 6:21 PM GMT
Moon 11:02 AM GMT (12/30) 11:40 PM GMT (12/30)
Length of Visible Light 8h 31m
Length of Day
6h 54m
Waxing Crescent, 33% of the Moon is Illuminated
Dec 30
Waxing Crescent
Jan 1
First Quarter
Jan 9
Full
Jan 16
Last Quarter
Jan 23
New

Hourly Weather History & Observations

Time (GMT) Temp. Windchill Dew Point Humidity Pressure Visibility Wind Dir Wind Speed Gust Speed Precip Events Conditions
12:20 AM 42.8 °F 34.5 °F 35.6 °F 76% 29.98 in 6.2 mi NW 18.4 mph - N/A   Partly Cloudy
12:50 AM 42.8 °F 34.8 °F 37.4 °F 81% 29.98 in 6.2 mi North 17.3 mph - N/A   Scattered Clouds
1:20 AM 41.0 °F 32.2 °F 37.4 °F 87% 29.98 in 6.2 mi NNW 18.4 mph - N/A   Scattered Clouds
1:50 AM 41.0 °F 33.1 °F 37.4 °F 87% 29.98 in 6.2 mi NW 15.0 mph - N/A   Partly Cloudy
2:20 AM 42.8 °F 34.8 °F 35.6 °F 76% 29.98 in 6.2 mi NW 17.3 mph - N/A   Mostly Cloudy
2:50 AM 41 °F - 37 °F 80% 29.98 in 11 mi NNW 16.1 mph - -   Scattered Clouds
2:50 AM 41.0 °F 32.8 °F 37.4 °F 87% 29.98 in 6.2 mi NNW 16.1 mph - N/A   Unknown
3:20 AM 41.0 °F 35.2 °F 37.4 °F 87% 29.98 in 6.2 mi NW 9.2 mph - N/A   Partly Cloudy
3:50 AM 42.8 °F 36.6 °F 37.4 °F 81% 29.98 in 6.2 mi NW 11.5 mph - N/A   Partly Cloudy
4:20 AM 42.8 °F 38.0 °F 39.2 °F 87% 29.98 in 6.2 mi NNW 8.1 mph - N/A   Partly Cloudy
4:50 AM 42.8 °F 36.6 °F 39.2 °F 87% 29.95 in 6.2 mi WNW 11.5 mph - N/A Rain Light Rain Showers
5:20 AM 41.0 °F 36.4 °F 37.4 °F 87% 29.95 in 6.2 mi West 6.9 mph - N/A   Partly Cloudy
5:50 AM 41 °F - 38 °F 85% 29.95 in 12 mi West 5.8 mph - - Rain Rain
5:50 AM 41.0 °F 37.1 °F 37.4 °F 87% 29.95 in 6.2 mi West 5.8 mph - N/A   Scattered Clouds
6:20 AM 41.0 °F 35.8 °F 39.2 °F 93% 29.92 in 6.2 mi WNW 8.1 mph - N/A Rain Light Rain Showers
6:50 AM 41.0 °F 38.0 °F 39.2 °F 93% 29.92 in 6.2 mi WSW 4.6 mph - N/A Rain Light Rain Showers
7:20 AM 41.0 °F 36.4 °F 39.2 °F 93% 29.92 in 6.2 mi WSW 6.9 mph - N/A Rain Light Rain Showers
7:50 AM 42.8 °F 38.6 °F 39.2 °F 87% 29.92 in 5.0 mi SW 6.9 mph - N/A Rain Light Rain
8:20 AM 42.8 °F 37.0 °F 41.0 °F 93% 29.92 in 4.3 mi WSW 10.4 mph - N/A Rain Rain
8:50 AM 42 °F - 40 °F 89% 29.90 in 7 mi SW 9.2 mph - - Rain Light Rain
8:50 AM 41.0 °F 35.2 °F 39.2 °F 93% 29.89 in 6.2 mi SW 9.2 mph - N/A Rain Light Rain
9:20 AM 41.0 °F 35.2 °F 41.0 °F 100% 29.86 in 5.0 mi SSW 9.2 mph - N/A Rain Light Rain
9:50 AM 42.8 °F 36.6 °F 41.0 °F 93% 29.86 in 6.2 mi South 11.5 mph - N/A Rain Light Rain
10:20 AM 42.8 °F 35.1 °F 41.0 °F 93% 29.83 in 5.6 mi South 16.1 mph - N/A Rain Light Rain
10:50 AM 42.8 °F 34.3 °F 41.0 °F 93% 29.80 in 5.0 mi South 19.6 mph - N/A Rain Light Rain
11:20 AM 42.8 °F 33.1 °F 42.8 °F 100% 29.77 in 3.7 mi SSE 25.3 mph - N/A Rain Rain
11:50 AM 44 °F - 43 °F 94% 29.73 in 3 mi South 28.8 mph - - Rain Rain
11:50 AM 44.6 °F 34.9 °F 42.8 °F 93% 29.71 in 4.3 mi South 28.8 mph - N/A Rain Rain
12:20 PM 44.6 °F 34.7 °F 42.8 °F 93% 29.71 in 2.8 mi South 29.9 mph - N/A Rain Rain
12:50 PM 44.6 °F 34.7 °F 42.8 °F 93% 29.68 in 1.6 mi South 29.9 mph - N/A Rain Rain
1:20 PM 44.6 °F 34.9 °F 44.6 °F 100% 29.65 in - South 28.8 mph - N/A Rain Rain
1:50 PM 46.4 °F 37.7 °F 46.4 °F 100% 29.62 in - South 26.5 mph - N/A Rain Rain
2:20 PM 46.4 °F 38.5 °F 46.4 °F 100% 29.59 in 1.9 mi South 21.9 mph - N/A Rain Rain
2:50 PM 49 °F - 49 °F 99% 29.59 in 3 mi SSW 18.4 mph - - Rain Rain
2:50 PM 48.2 °F - 48.2 °F 100% 29.56 in 3.1 mi SSW 18.4 mph - N/A Rain Rain
3:20 PM 50.0 °F - 50.0 °F 100% 29.56 in 1.8 mi WSW 17.3 mph - N/A Rain Light Rain
3:50 PM 50.0 °F - 50.0 °F 100% 29.53 in 1.5 mi WSW 17.3 mph - N/A   Overcast
4:20 PM 50.0 °F - 50.0 °F 100% 29.53 in 1.2 mi WSW 18.4 mph - N/A   Overcast
4:50 PM 50.0 °F - 50.0 °F 100% 29.53 in 1.4 mi WSW 18.4 mph - N/A   Light Drizzle
5:20 PM 51.8 °F - 51.8 °F 100% 29.53 in 1.6 mi West 21.9 mph - N/A   Light Drizzle
5:50 PM 51 °F - 51 °F 99% 29.53 in 3 mi West 21.9 mph - - Rain Light Rain
5:50 PM 51.8 °F - 51.8 °F 100% 29.50 in - West 21.9 mph - N/A Rain Light Rain
6:20 PM 51.8 °F - 51.8 °F 100% 29.50 in 2.5 mi West 23.0 mph - N/A   Overcast
6:50 PM 50.0 °F - 50.0 °F 100% 29.50 in 2.8 mi West 23.0 mph - N/A   Scattered Clouds
7:20 PM 50.0 °F - 50.0 °F 100% 29.50 in 1.9 mi West 20.7 mph - N/A   Overcast
7:50 PM 50.0 °F - 50.0 °F 100% 29.50 in 2.2 mi West 23.0 mph - N/A   Overcast
8:20 PM 50.0 °F - 50.0 °F 100% 29.50 in 5.6 mi West 24.2 mph - N/A   Scattered Clouds
8:50 PM 50 °F - 50 °F 100% 29.54 in 7 mi West 24.2 mph - -   Mostly Cloudy
8:50 PM 50.0 °F - 50.0 °F 100% 29.53 in 6.2 mi West 24.2 mph - N/A   Mostly Cloudy
9:20 PM 50.0 °F - 50.0 °F 100% 29.53 in 1.3 mi West 19.6 mph - N/A   Mostly Cloudy
9:50 PM 50.0 °F - 50.0 °F 100% 29.53 in 6.2 mi West 20.7 mph - N/A   Mostly Cloudy
10:20 PM 50.0 °F - 50.0 °F 100% 29.53 in 1.4 mi West 20.7 mph - N/A   Mostly Cloudy
10:50 PM 50.0 °F - 50.0 °F 100% 29.53 in 0.8 mi West 17.3 mph - N/A   Overcast
11:20 PM 50.0 °F - 50.0 °F 100% 29.53 in 6.2 mi West 23.0 mph - N/A   Mostly Cloudy
11:50 PM 50 °F - 49 °F 97% 29.55 in 6 mi West 19.6 mph - - Rain Rain
11:50 PM 50.0 °F - 50.0 °F 100% 29.53 in 6.2 mi West 19.6 mph - N/A   Partly Cloudy